Activity Log for Jan, 25 2019

Back to Activity Log Search


Incident Time Nature Address
19F008892 00:00:02 30 TRAFFIC STOP 39XX N CLINTON ST
19F008894 00:09:28 36 OCCUPIED VEH 103XX MAYSVILLE RD
19F008895 00:11:48 48 SUSPICIOUS 9XX COLERICK ST
19F008896 00:18:45 48,36 S CLINTON ST & E PONTIAC ST
19F008897 00:31:22 22RC RECOVERY 41XX REED ST
19F008898 00:36:42 44LM 49XX BLUM DR
19F008899 00:38:27 43 DISTURBANCE 23XX WELLS ST
19F008900 00:43:41 40A AUDIBLE 44XX WOODWAY DR
19F008901 00:53:54 40A AUDIBLE 39XX FELICIAN ST
19F008902 01:02:35 44 NUISANCE 30XX W COLISEUM BLVD
19F008903 01:13:53 40A AUDIBLE 33XX N CLINTON ST
19F008904 01:17:00 63 CONTACT 60XX ST JOE CENTER RD
19F008905 01:39:38 40A AUDIBLE 2XX W MAIN ST
19F008906 01:41:51 63 CONTACT 3XX AUGUSTA WAY
19F008907 01:48:08 30 TRAFFIC STOP E WASHINGTON CENTER RD & COLDWATER
19F008908 01:59:44 96 BATTERY 16XX HOWELL ST
19F008909 02:16:14 63 CONTACT 10XX FAYETTE DR
19F008910 02:21:19 40A AUDIBLE 4XX E COLISEUM BLVD
19F008911 02:25:15 51JO 17XX APPLE GLEN BLVD
19F008912 03:12:49 48 SUSPICIOUS 3XX W BERRY ST
19F008913 03:16:37 96IP 10XX LAKE AVE UNIT 1
19F008914 03:17:18 103 UNWANTED 29XX GOSHEN RD
19F008916 03:18:41 40A AUDIBLE 2XX W MAIN ST
19F008915 03:18:55 40A AUDIBLE 77XX LIMA RD
19F008917 03:29:46 40A AUDIBLE 62XX MAPLECREST RD
19F008920 03:40:11 103 UNWANTED 12XX N COLISEUM BLVD
19F008918 03:41:35 1 MEET XX E MAIN ST
19F008919 03:42:07 129 7XX E TILLMAN RD
19F008921 03:53:16 48,36 24XX BROOKLYN AVE
19F008922 04:33:12 40A AUDIBLE 102XX E DUPONT CIRCLE DR
19F008923 04:35:31 63 CONTACT 32XX RAYMOND AVE
19F008925 04:42:29 11C CAGE CAR 22XX RANDALLIA DR
19F008924 04:45:26 40A AUDIBLE 91XX BLUFFTON RD
19F008926 04:55:39 111D DOG 65XX GOLDEN LN
19F008927 04:59:31 40A AUDIBLE 5XX E DEWALD ST
19F008928 05:03:01 25 PD ACCIDENT KILLEA ST & SHAWNEE DR
19F008929 05:08:32 48 SUSPICIOUS 3XX W BERRY ST
19F008930 05:11:27 63 CONTACT 30XX W COLISEUM BLVD
19F008931 05:12:37 40A AUDIBLE 27XX INDEPENDENCE DR
19F008932 05:14:59 51JO 60XX ST JOE CENTER RD
19F008933 05:29:54 40A AUDIBLE 2XX CONGRESS AVE
19F008934 05:50:01 99 NARCOTICS 63XX LIMA RD
19F008935 06:06:36 25 PD ACCIDENT E LUDWIG RD & LUDWIG CIR
19F008936 06:12:11 30 TRAFFIC STOP W US 30 & N WESTCOUNTY LINE RD
19F008937 06:13:10 25HS HIT SKIP 49XX BOWSER AVE
19F008938 06:31:37 25 PD ACCIDENT W COOK RD & FRITZ RD
19F008939 06:33:31 25 PD ACCIDENT E STATE BLVD & CRESCENT AVE
19F008940 06:42:20 40H HOLDUP ALRM 15XX W DUPONT RD
19F008941 06:52:00 36 OCCUPIED VEH 309XX I 69 SB
19F008943 06:54:25 50 BURGLARY 29XX BOWSER AVE
19F008942 07:02:02 43 DISTURBANCE 1XX W BAKER ST
19F008947 07:02:50 51 THEFT 16XX REED RD
19F008944 07:04:10 30 TRAFFIC STOP 31XX BROOKLYN AVE
19F008945 07:08:29 15 ASSIST 307XX I 69 SB
19F008946 07:08:31 40A AUDIBLE 85XX TEMPLE DR
19F008948 07:15:08 30 TRAFFIC STOP W COLISEUM BLVD & HATFIELD RD
19F008949 07:15:32 30 TRAFFIC STOP LIMA RD & COREE DR
19F008950 07:18:08 33,34 S HADLEY RD & COVINGTON RD
19F008952 07:18:49 18 WORK TRAFFIC WELLS ST & MILDRED AVE
19F008956 07:19:18 18 WORK TRAFFIC E STATE BLVD & LAVERNE AVE
19F008957 07:19:42 18 WORK TRAFFIC TRIER RD & FERNBANK DR
19F008951 07:27:13 20 PROBLEM UNK 12XX W PACKARD AVE
19F008953 07:32:45 48 SUSPICIOUS 27XX MAULDIN DR
19F008954 07:35:55 34 TRAFF HAZARD 311XX I 69 SB
19F008955 07:37:24 40P PANIC ALARM 14XX NORTHLAND BLVD
19F008959 07:53:47 55 FIGHT W JEFFERSON BLVD & ARDMORE AVE
19F008960 07:57:16 40A AUDIBLE 12XX E CREIGHTON AVE
19F008961 07:57:30 40A AUDIBLE 34XX GLOUCHESTER DR
19F008962 07:59:41 22I JUV INVEST 4XX W COX DR
19F008963 08:00:14 39JO 36XX RAYMOND AVE
19F008966 08:05:51 46 DOMESTIC 13XX KENWOOD AVE
19F008964 08:08:10 33,34 LIMA RD & W COLISEUM BLVD
19F008965 08:12:04 25 PD ACCIDENT E WASHINGTON BLVD & FAIRVIEW AVE
19F008967 08:16:10 43,62 26XX S ANTHONY BLVD
19F008968 08:32:51 XX E MAIN ST
19F008969 08:37:20 43 DISTURBANCE 21XX EDEN ST
19F008970 08:38:01 25 PD ACCIDENT 51XX ILLINOIS RD
19F008971 08:41:56 40A AUDIBLE 13XX BROADWAY
19F008972 08:43:10 26PP PINNED 309XX I 69 NB
19F008973 08:55:13 25 PD ACCIDENT E DUPONT RD & AUBURN RD
19F008974 08:55:53 43 DISTURBANCE 35XX WARSAW ST
19F008977 08:59:45 46 DOMESTIC 28XX OAKWOOD DR
19F008975 09:01:37 25HS HIT SKIP 5XX VAN BUREN ST
19F008976 09:02:23 51 THEFT 80XX N CLINTON ST
19F008978 09:02:38 25 PD ACCIDENT S CALHOUN ST & W WILLIAMS ST
19F008980 09:04:34 15 ASSIST 65XX COVINGTON RD
19F008979 09:05:10 33,34 E WAYNE ST & S LAFAYETTE ST
19F008982 09:09:27 22RN RUNAWAY 63XX LANDMARK DR
19F008981 09:11:24 48,36 5XX PUTNAM ST
19F008983 09:13:12 25 PD ACCIDENT W JEFFERSON BLVD & FAIRFIELD AVE
19F008984 09:15:00 25HS HIT SKIP 2XX S CORNELL CIR
19F008985 09:20:05 46 DOMESTIC 21XX EBY AVE
19F008987 09:22:32 25 PD ACCIDENT W JEFFERSON BLVD & APPLE GLEN BLVD
19F008986 09:23:00 37 PARKING VIOL N HARRISON ST & PUTNAM ST
19F008988 09:29:45 63 CONTACT GOSHEN RD & W COLISEUM BLVD
19F008990 09:31:47 63 CONTACT 63XX E STATE BLVD
19F008989 09:33:01 51 THEFT 15XX CHEROKEE RD
19F008991 09:35:57 15 ASSIST 7XX RUSSELL AVE
19F008994 09:46:22 50,ATTEMPTED 19XX GREENTREE CT
19F008992 09:46:36 14S SERVING WAR 37XX GAYWOOD DR
19F008993 09:47:17 40A AUDIBLE 75XX COVINGTON HOLLOW PASS
19F009006 09:47:21 17 MOTOR CHECK 45XX S COLONIAL AVE
19F008995 09:53:53 25 PD ACCIDENT 18XX N COLISEUM BLVD
19F008996 09:56:03 16,97 50XX LIMA RD
19F008997 09:59:54 129 62XX WEBSTER ST
19F008998 10:03:13 65T SUICIDE THR 7XX BROADWAY
19F008999 10:06:39 80 CIVIL INVEST 30XX W COLISEUM BLVD
19F009001 10:08:08 103 UNWANTED 22XX S CALHOUN ST
19F009000 10:08:42 25 PD ACCIDENT 64XX W JEFFERSON BLVD
19F009002 10:10:17 17 MOTOR CHECK 14XX WELLS ST
19F009012 10:11:25 16,97 34XX CENTRAL DR
19F009003 10:11:28 911 HANG UP 64XX COVINGTON RD UNIT C114
19F009004 10:14:06 25HS HIT SKIP 5XX S CALHOUN ST
19F009007 10:19:40 48 SUSPICIOUS 8XX COTTAGE AVE
19F009005 10:21:46 51 THEFT 85XX BREMEN WAY
19F009008 10:26:54 65T SUICIDE THR 29XX WESTBROOK DR
19F009010 10:31:48 66V MENTAL VIOL 23XX LAKE AVE
19F009009 10:31:51 129 82XX CASTLE PINES PL
19F009011 10:34:00 46 DOMESTIC 5XX S CALHOUN ST
19F009014 10:35:46 911 HANG UP 24XX HOBSON RD
19F009020 10:38:04 63 CONTACT 36XX DEER CV
19F009013 10:41:08 20 PROBLEM UNK 1XX E TABER ST
19F009015 10:47:51 51 THEFT 54XX PICKAWILLANY CT
19F009016 10:49:08 33,34 COVINGTON RD & SOUTHBEND DR
19F009017 10:52:54 40A AUDIBLE 67XX SOUTHBEND DR
19F009019 10:58:03 51 THEFT 20XX THOMPSON AVE
19F009018 11:00:32 43 DISTURBANCE 12XX TENNESSEE AVE
19F009021 11:05:43 43 DISTURBANCE 13XX GOSHEN AVE
19F009022 11:07:36 80 CIVIL INVEST 7XX E DUPONT RD
19F009023 11:08:23 97A LOST ITEMS 15XX S CLINTON ST
19F009025 11:11:35 46 DOMESTIC 13XX KENWOOD AVE
19F009024 11:11:50 16,97 14XX MEYER RD
19F009026 11:23:12 65T SUICIDE THR 29XX WESTBROOK DR UNIT A401
19F009027 11:24:34 46,96 11XX FAIRFIELD AVE
19F009028 11:26:26 43 DISTURBANCE 10XX THIRD ST
19F009031 11:26:40 911 HANG UP 47XX ST JOE RD
19F009029 11:28:42 22I JUV INVEST 49XX VANCE AVE
19F009030 11:29:01 80 CIVIL INVEST 42XX FERDINAND CT
19F009032 11:35:52 55 FIGHT 79XX DECATUR RD
19F009033 11:39:22 25 PD ACCIDENT 64XX W JEFFERSON BLVD
19F009034 11:42:10 40I INTRUSION 39XX OLD MILL RD
19F009035 11:46:06 25 PD ACCIDENT N ANTHONY BLVD & ST JOE RIVER DR
19F009037 11:46:36 40A AUDIBLE 8XX KINNAIRD AVE
19F009036 11:46:58 62 PARTY ARMED 21XX LAKE AVE
19F009038 11:49:24 40A AUDIBLE 18XX BERKLEY AVE
19F009039 11:53:10 40A AUDIBLE 7XX LEY RD
19F009040 11:53:37 911 HANG UP 18XX GRISWOLD DR
19F009042 11:59:50 26 PI ACCIDENT 79XX W JEFFERSON BLVD
19F009041 12:00:12 83 INFO REPORT 69XX ROSNER XING
19F009043 12:16:28 1 MEET 1XX RILEY PL
19F009044 12:18:30 41 MAN DOWN 12XX EWING ST
19F009045 12:20:57 37 PARKING VIOL 7XX W FOURTH ST
19F009046 12:21:16 25 PD ACCIDENT EXECUTIVE BLVD & W COLISEUM BLVD
19F009047 12:23:07 48,36 11XX GOSHEN AVE
19F009048 12:29:31 37 PARKING VIOL 7XX E STATE BLVD
19F009050 12:29:44 102,TX THREATS 4XX ROSE LN
19F009049 12:30:06 30 TRAFFIC STOP THIRD ST & OAKLAND ST
19F009051 12:45:46 22I JUV INVEST 21XX LAKE AVE
19F009052 12:48:22 40A AUDIBLE 43XX ENCINO DR
19F009053 12:48:51 46 DOMESTIC 52XX ST JOE CENTER RD
19F009054 12:59:46 30 TRAFFIC STOP E COOK RD & COLDWATER RD
19F009055 13:05:57 30 TRAFFIC STOP N CLINTON ST & ELIZABETH ST
19F009056 13:12:36 30 TRAFFIC STOP COLDWATER RD & E COOK RD
19F009057 13:16:25 30 TRAFFIC STOP UNION CHAPEL RD & CRYSTAL CREEK PK
19F009058 13:17:16 40A AUDIBLE 50XX PLAZA DR
19F009059 13:26:58 30 TRAFFIC STOP 29XX LAKE AVE
19F009061 13:28:35 17 MOTOR CHECK 32XX BROOKLYN AVE
19F009060 13:29:07 25 PD ACCIDENT N CLINTON ST & E FOURTH ST
19F009062 13:29:13 22RN RUNAWAY 29XX WESTBROOK DR
19F009071 13:37:17 17 MOTOR CHECK 72XX E KENSINGTON DR
19F009070 13:39:02 47 REMOVE ITEMS 63XX S CALHOUN ST
19F009063 13:41:57 30 TRAFFIC STOP TAYLOR ST & PAUL ST
19F009066 13:47:31 102,TX THREATS 52XX WILLOWHURST DR
19F009064 13:47:49 48 SUSPICIOUS 13XX PUTNAM ST
19F009065 13:49:43 30 TRAFFIC STOP COLDWATER RD & E COLLINS RD
19F009067 13:50:40 102,TX THREATS 62XX STELLHORN RD
19F009068 13:59:30 65T SUICIDE THR 42XX COLEMAN AVE
19F009069 13:59:52 50IP BURG I/P 49XX MOUNT VERNON PARK DR
19F009072 14:03:41 33,34 CRESCENT AVE & E COLISEUM BLVD
19F009073 14:04:11 17R REREAD 14XX WELLS ST
19F009074 14:11:12 65T SUICIDE THR 3XX E HOOVER DR
19F009075 14:15:27 30 TRAFFIC STOP I 69 AND DUPONT RD
19F009076 14:21:10 36 OCCUPIED VEH 93XX BALLYMORE DR
19F009082 14:22:14 18 WORK TRAFFIC MILDRED AVE & WELLS ST
19F009086 14:24:02 18 WORK TRAFFIC E STATE BLVD & LAVERNE AVE
19F009077 14:24:08 51 THEFT 35XX TAYLOR ST
19F009079 14:24:46 40A AUDIBLE 12XX W RUDISILL BLVD
19F009078 14:25:45 30 TRAFFIC STOP 14XX HIGH ST
19F009087 14:26:20 18 WORK TRAFFIC TRIER RD & FERNBANK DR
19F009080 14:28:00 33J LOCKED OUT 41XX LIMA RD
19F009081 14:34:35 25 PD ACCIDENT N COLISEUM BLVD & LAKE AVE
19F009083 14:35:29 30 TRAFFIC STOP HOMESTEAD RD & BRANNING RD
19F009084 14:38:49 46 DOMESTIC 22XX CASS ST
19F009085 14:39:40 40A AUDIBLE 102XX W DUPONT CIRCLE DR
19F009088 14:44:04 65A SUICIDE ATT 28XX FAIRFIELD AVE
19F009090 14:45:53 40A AUDIBLE 65XX CONSTITUTION DR
19F009089 14:46:53 30 TRAFFIC STOP STURGIS ST & FULTON ST
19F009091 14:49:43 25 PD ACCIDENT E COLISEUM BLVD & HOBSON RD
19F009096 14:49:44 63 CONTACT 36XX DEER CV
19F009093 14:50:33 65T SUICIDE THR 28XX FRUEHAUF DR
19F009092 14:51:24 1 MEET 24XX SMITH ST
19F009095 14:54:26 25 PD ACCIDENT 63XX ILLINOIS RD
19F009094 14:54:55 30 TRAFFIC STOP LIMA RD & W WASHINGTON CENTER RD
19F009097 14:56:18 40A AUDIBLE 61XX HOMESTEAD RD
19F009100 15:02:53 43 DISTURBANCE 35XX ELMCREST DR
19F009098 15:03:08 30 TRAFFIC STOP LAKE AVE & CRESCENT AVE
19F009099 15:03:35 30 TRAFFIC STOP LAKE AVE & REED RD
19F009102 15:12:07 48,36 WEISSER PARK AVE & E MAPLE GROVE A
19F009104 15:16:34 30 TRAFFIC STOP N COLISEUM BLVD & E STATE BLVD
19F009103 15:17:06 43 DISTURBANCE 11XX W STATE BLVD
19F009105 15:17:19 30 TRAFFIC STOP STELLHORN RD & MAPLECREST RD
19F009106 15:21:03 25 PD ACCIDENT ENGLE RD & W JEFFERSON BLVD
19F009107 15:22:58 43 DISTURBANCE 16XX BAYVIEW DR
19F009109 15:25:52 43 DISTURBANCE 10XX S CLINTON ST
19F009108 15:25:58 30 TRAFFIC STOP 64XX COVINGTON RD
19F009110 15:30:35 51 THEFT 35XX TAYLOR ST
19F009111 15:31:34 30 TRAFFIC STOP FAIRFIELD AVE & W BUTLER ST
19F009112 15:31:39 25 PD ACCIDENT ILLINOIS RD & S HILLEGAS RD
19F009113 15:34:56 25 PD ACCIDENT BLUFFTON RD & LOWER HUNTINGTON RD
19F009114 15:37:18 30 TRAFFIC STOP DALMAN AVE & S LAFAYETTE ST
19F009116 15:42:48 46 DOMESTIC 21XX EDEN ST
19F009115 15:45:36 23 VANDALISM 20XX GLADSTONE DR
19F009117 15:48:54 30 TRAFFIC STOP W RUDISILL BLVD & TACOMA AVE
19F009118 15:49:04 46 DOMESTIC 23XX WELLS ST
19F009119 15:51:47 30 TRAFFIC STOP NUTTMAN AVE & WENONAH LN
19F009120 15:54:23 63 CONTACT 1XX E TABER ST
19F009126 15:54:38 25HS HIT SKIP 4XX ARCHER AVE
19F009121 15:57:27 80 CIVIL INVEST 75XX COUNTRY CT
19F009124 15:57:27 25 PD ACCIDENT 77XX W JEFFERSON BLVD
19F009122 15:58:47 30 TRAFFIC STOP BROADWAY & W DEWALD ST
19F009123 15:59:22 63 CONTACT 25XX SHERMAN BLVD
19F009125 16:02:01 30 TRAFFIC STOP FREEMAN ST & COVINGTON RD
19F009128 16:03:54 1 MEET S ANTHONY BLVD & E PAULDING RD
19F009127 16:06:46 40A AUDIBLE 50XX PLAZA DR
19F009129 16:14:01 30 TRAFFIC STOP FREEMAN ST & COVINGTON RD
19F009131 16:15:19 50 BURGLARY 35XX BROOKLYN AVE
19F009130 16:16:32 30 TRAFFIC STOP 64XX N CLINTON ST
19F009133 16:18:09 63 CONTACT 1XX W BAKER ST
19F009132 16:19:31 14 WARRANT 36XX S CALHOUN ST
19F009134 16:21:01 63 CONTACT 37XX BOWSER AVE
19F009135 16:24:08 99 NARCOTICS 4XX SPRING ST
19F009137 16:29:41 11C CAGE CAR 42XX COLDWATER RD
19F009136 16:30:17 46 DOMESTIC 28XX S MONROE ST
19F009158 16:38:13 22RN RUNAWAY 11XX W FOSTER PKWY
19F009144 16:38:15 24 MISSING PERS BROADWAY & BLUFFTON RD
19F009138 16:38:41 25HS HIT SKIP 43XX S LAFAYETTE ST
19F009139 16:42:09 30 TRAFFIC STOP S CLINTON ST & E WASHINGTON BLVD
19F009140 16:42:23 14S SERVING WAR 33XX TIMBERHILL DR
19F009141 16:44:35 63 CONTACT 18XX RANSOM DR
19F009142 16:46:52 43 DISTURBANCE 18XX BLUFFTON RD
19F009143 16:47:54 99 NARCOTICS 67XX RAMBLEWOOD DR
19F009145 16:51:51 15 ASSIST W BUTLER ST & S HARRISON ST
19F009146 17:00:35 103 UNWANTED 14XX BAXTER ST
19F009147 17:02:03 34 TRAFF HAZARD 7XX N COLISEUM BLVD
19F009149 17:04:41 25HS HIT SKIP 28XX OXFORD ST
19F009148 17:05:07 26 PI ACCIDENT 30XX S CALHOUN ST
19F009150 17:08:06 25,86 WEBSTER ST & KINSMOOR AVE
19F009151 17:08:11 62 PARTY ARMED 41XX LIMA RD
19F009152 17:08:45 16 PICK UP ITEM 24XX CASS ST
19F009153 17:11:07 30 TRAFFIC STOP COLDWATER RD & E COOK RD
19F009154 17:14:39 911 HANG UP 55XX W US 30
19F009155 17:23:36 38 LOST/STOLEN 7XX LILLIAN AVE
19F009157 17:26:34 33J LOCKED OUT 60XX HIGHVIEW DR
19F009156 17:26:48 101 OPEN DOOR 40XX S CLINTON ST
19F009159 17:33:01 30 TRAFFIC STOP NUTTMAN AVE & WENONAH LN
19F009160 17:35:31 30 TRAFFIC STOP E COLISEUM BLVD & COLDWATER RD
19F009161 17:36:21 1 MEET GOSHEN RD & W WASHINGTON CENTER RD
19F009162 17:37:09 25 PD ACCIDENT AIRPORT EXPRESSWAY & BLUFFTON RD
19F009164 17:42:51 25 PD ACCIDENT 28XX S MONROE ST
19F009163 17:43:10 15,85 ASST AT O 13XX WABASH AVE
19F009165 17:46:26 30 TRAFFIC STOP NUTTMAN AVE & WENONAH LN
19F009166 17:46:30 30 TRAFFIC STOP ROBERTA DR & ASHCROFT DR
19F009167 17:48:32 40A AUDIBLE 40XX S ANTHONY BLVD
19F009176 17:48:53 47 REMOVE ITEMS 63XX S CALHOUN ST
19F009168 17:53:30 46 DOMESTIC 72XX BELLWOOD DR
19F009169 17:57:18 51 THEFT 10XX BROADWAY
19F009172 17:57:18 911 HANG UP 15XX WELLS ST
19F009170 17:57:35 51JO 75XX SOUTHTOWN XING
19F009171 17:58:09 46,96 16XX HOBSON RD
19F009174 18:06:08 46 DOMESTIC 4XX AGNES ST
19F009173 18:06:16 40A AUDIBLE 61XX ARDMORE AVE
19F009175 18:11:06 30 TRAFFIC STOP FREEMAN ST & COVINGTON RD
19F009185 18:18:43 46,96 22XX RANDALLIA DR
19F009178 18:23:35 22I JUV INVEST 5XX BRADFIELD DR
19F009177 18:24:18 30 TRAFFIC STOP NUTTMAN AVE & MIAMI LN
19F009180 18:25:14 48 SUSPICIOUS 47XX S LAFAYETTE ST
19F009181 18:29:36 30 TRAFFIC STOP W JEFFERSON BLVD & BROADWAY
19F009182 18:33:03 63 CONTACT LIMA RD & W COOK RD
19F009184 18:34:05 46 DOMESTIC 13XX CAMP ALLEN DR
19F009183 18:34:28 30 TRAFFIC STOP WEISSER PARK AVE & E RUDISILL BLVD
19F009186 18:42:27 103 UNWANTED 24XX BELLEVUE DR
19F009187 18:48:00 40A AUDIBLE 19XX ARDMORE AVE
19F009188 18:50:16 46 DOMESTIC 7XX DOLPHIN DR
19F009191 18:54:46 1 MEET 42XX DARBY DR
19F009189 18:54:51 14S SERVING WAR 51XX SALEM LN
19F009190 18:57:07 63 CONTACT COVENTRY LN & ABOITE CENTER RD
19F009193 19:01:19 27 RECKLESS DRI W COLISEUM BLVD & SHERMAN BLVD
19F009192 19:03:28 30 TRAFFIC STOP W RUDISILL BLVD & S CALHOUN ST
19F009194 19:08:55 26HS PI HITSKIP 5XX W JEFFERSON BLVD
19F009202 19:09:26 19 ESCORT 7XX BROADWAY
19F009195 19:09:44 96JO 12XX W STATE BLVD
19F009196 19:11:31 40A AUDIBLE 35XX LAKE AVE
19F009197 19:15:31 80 CIVIL INVEST MAPLECREST RD & ST JOE CENTER RD
19F009198 19:23:37 911 HANG UP 40XX WAYNE TRACE
19F009201 19:26:58 40 ALARM 19XX ARDMORE AVE
19F009205 19:27:24 15 ASSIST 18XX TILDEN AVE
19F009199 19:28:43 30 TRAFFIC STOP ST JOE RD & REBECCA ST
19F009200 19:29:06 43 DISTURBANCE 5XX W JEFFERSON BLVD
19F009203 19:32:08 37 PARKING VIOL 16XX BARTHOLD ST
19F009204 19:34:09 40P PANIC ALARM 59XX HOMESTEAD RD
19F009209 19:36:52 73 WALK AWAY 59XX HOMESTEAD RD
19F009206 19:38:32 30 TRAFFIC STOP S ANTHONY BLVD & E PETTIT AVE
19F009207 19:39:48 45 NEIGHBORHOOD 64XX EMMONS DR
19F009208 19:43:26 65T SUICIDE THR 82XX NORTHBURY DR
19F009211 19:45:20 46 DOMESTIC 23XX FAIRFIELD AVE
19F009210 19:48:12 40A AUDIBLE 61XX SALGE DR
19F009212 20:00:44 911 HANG UP 67XX S ANTHONY BLVD
19F009213 20:01:48 43 DISTURBANCE 74XX BRADBURY AVE
19F009214 20:01:56 15,85 ASST AT O 29XX WESTBROOK DR UNIT A401
19F009215 20:10:11 33J LOCKED OUT 58XX FAIRFIELD AVE
19F009216 20:11:01 40P PANIC ALARM 68XX BRIARCLIFF DR
19F009217 20:16:37 25HS HIT SKIP W COLISEUM BLVD & GOSHEN RD
19F009218 20:18:25 30 TRAFFIC STOP SOUTHWAYNE AVE & MEYER AVE
19F009219 20:19:47 46 DOMESTIC 21XX EDEN ST
19F009220 20:22:37 65A SUICIDE ATT 82XX NORTHBURY DR
19F009221 20:26:39 30 TRAFFIC STOP W COLISEUM BLVD & EXECUTIVE BLVD
19F009222 20:32:29 911 HANG UP 65XX ST JOE RD APT 502
19F009223 20:34:29 40H HOLDUP ALRM 66XX BARBARA JEAN CT
19F009224 20:41:23 33,34 37XX ARDMORE AVE
19F009226 20:44:27 103 UNWANTED 11XX S THOMAS RD
19F009225 20:44:34 33,34 LIMA RD & W WASHINGTON CENTER RD
19F009227 20:45:38 30 TRAFFIC STOP W STATE BLVD & CASS ST
19F009230 20:46:06 16,97 46XX COLDWATER RD
19F009228 20:46:33 65A SUICIDE ATT 33XX EASTWOOD DR
19F009229 20:46:55 40A AUDIBLE 7XX EDGEWATER AVE
19F009231 20:54:33 30 TRAFFIC STOP OLD MILL RD & HARTMAN RD
19F009233 20:59:09 25 PD ACCIDENT COLDWATER RD & STRATTON RD
19F009232 21:00:32 38A LOST/ARTICL 56XX OLD DOVER BLVD
19F009234 21:02:14 30 TRAFFIC STOP LEY RD & MERCHANDISE DR
19F009235 21:03:54 65T SUICIDE THR 17XX CLOVER LN
19F009239 21:05:43 22I JUV INVEST 23XX GAY ST
19F009236 21:07:06 48,36 28XX CARRINGTON DR
19F009237 21:07:41 46 DOMESTIC 43XX WEISSER PARK AVE
19F009238 21:11:30 63 CONTACT 2XX CHISHOLM PL
19F009240 21:13:13 43 DISTURBANCE 73XX S ANTHONY BLVD
19F009241 21:15:13 48 SUSPICIOUS 36XX ROBINWOOD DR
19F009242 21:15:48 25 PD ACCIDENT E COLISEUM BLVD & HARRY BAALS DR
19F009247 21:18:44 50 BURGLARY 8XX BUCHANAN ST
19F009243 21:19:19 25 PD ACCIDENT S HILLEGAS RD & ILLINOIS RD
19F009244 21:19:51 66 MENTALLY ILL 16XX KELLY DR
19F009245 21:20:18 911 HANG UP 68XX EMBERS CT
19F009246 21:20:56 66 72 HOUR 25XX E DUPONT RD
19F009248 21:28:21 25 PD ACCIDENT SCHELE AVE & ROY ST
19F009249 21:28:24 51JO 31XX W COLISEUM BLVD
19F009250 21:37:44 30 TRAFFIC STOP SOUTHPARK DR & CONGRESS AVE
19F009251 21:40:09 40A AUDIBLE 13XX PINEHURST DR
19F009252 21:43:26 80 CIVIL INVEST 14XX NORTHLAND BLVD
19F009253 21:45:21 25 PD ACCIDENT 47XX SPEEDWAY DR
19F009254 21:49:00 25 PD ACCIDENT CARROLL RD & SR 3
19F009255 21:51:58 43 DISTURBANCE 18XX WELLS ST
19F009260 21:52:53 25 PD ACCIDENT I 69 SB & EXIT 309B SB
19F009263 21:56:19 44LM 1XX RILEY PL
19F009256 21:56:57 30 TRAFFIC STOP WELLS ST & PUTNAM ST
19F009259 21:57:10 25HS HIT SKIP WESTBROOK DR & W STATE BLVD
19F009257 21:57:14 44LM 65XX GEORGETOWN LN
19F009261 22:00:11 44 NUISANCE 18XX FOX POINT TRL
19F009258 22:00:38 101 OPEN DOOR 8XX BUCHANAN ST
19F009262 22:06:38 33 DISABLED VEH SMITH RD & ENGLE RD
19F009264 22:09:55 30 TRAFFIC STOP W WILDWOOD AVE & SHAWNEE DR
19F009265 22:10:44 30 TRAFFIC STOP SHERMAN BLVD & HUFFMAN ST
19F009266 22:13:15 129 18XX FOX POINT TRL
19F009268 22:15:29 36 OCCUPIED VEH I 469 AND MAPLECREST RD
19F009267 22:16:31 25 PD ACCIDENT 5XX SPRINGBROOK RD
19F009269 22:21:17 25 PD ACCIDENT WITCHWOOD DR & BEATY AVE
19F009270 22:22:26 33,34 COLDWATER RD & E TILL RD
19F009271 22:24:48 46,96 20XX CHARTWELL DR
19F009272 22:31:53 40A AUDIBLE 17XX S CALHOUN ST
19F009273 22:37:27 30 TRAFFIC STOP N COLISEUM BLVD & LAKE AVE
19F009274 22:39:56 48,36 22XX WESTBROOK DR
19F009275 22:45:04 48 SUSPICIOUS N COLISEUM BLVD & LAKE AVE
19F009276 22:45:07 25 PD ACCIDENT 28XX HOAGLAND AVE
19F009277 22:46:56 25HS HIT SKIP 31XX WEBSTER ST
19F009278 22:50:35 43 DISTURBANCE 64XX EMMONS DR
19F009279 22:50:59 26 PI ACCIDENT I 69 NB & EXIT 311A NB
19F009281 22:53:35 25 PD ACCIDENT 314XX I 69 SB
19F009280 22:56:07 30 TRAFFIC STOP STELLHORN RD & MAPLECREST RD
19F009282 23:01:55 51JO 10XX BROADWAY
19F009284 23:02:34 EMS 15XX WELLS ST
19F009283 23:02:40 36 OCCUPIED VEH 310XX I 69 NB
19F009285 23:10:02 25 PD ACCIDENT 310XX I 69 NB
19F009287 23:12:54 911 HANG UP 47XX HEATHERWIND DR UNIT A
19F009286 23:14:49 48,36 64XX ST JOE RD
19F009288 23:16:40 46 DOMESTIC 70XX JOHN ST
19F009289 23:21:29 30 TRAFFIC STOP WELLS ST & W FOURTH ST
19F009290 23:25:40 30 TRAFFIC STOP LAHMEYER RD & DIANE DR
19F009291 23:26:24 19 ESCORT 7XX BROADWAY
19F009292 23:28:55 25,86 310XX I 69 NB
19F009293 23:31:00 30 TRAFFIC STOP BLUFFTON RD & VILLA DR
19F009294 23:31:20 48 SUSPICIOUS OLD DOVER BLVD & FOXCROSS CT
19F009295 23:34:48 103 UNWANTED 61XX BUNT DR
19F009296 23:35:17 48 SUSPICIOUS 14XX ST MARYS AVE
19F009297 23:38:39 25 PD ACCIDENT ARDMORE AVE & COVINGTON RD
19F009298 23:48:10 25 PD ACCIDENT 313XX I 69 SB
19F009299 23:53:39 48,36 30XX TRIER RD
19F009300 23:56:12 26 PI ACCIDENT 24XX N CLINTON ST
19F009301 23:57:58 22N CHILD NEGLE 79XX W JEFFERSON BLVD
19F009302 23:59:12 EMS 34XX COUNTRYDALE DR